TimeCST,TemperatureF,Dew PointF,Humidity,Sea Level PressureIn,VisibilityMPH,Wind Direction,Wind SpeedMPH,Gust SpeedMPH,PrecipitationIn,Events,Conditions,WindDirDegrees,DateUTC
12:55 AM,59.2,52.9,80,29.62,10.0,South,16.1,29.9,N/A,,Clear,190,2011-11-13 06:55:00
1:55 AM,58.6,53.2,82,29.60,10.0,South,17.3,27.6,N/A,,Clear,180,2011-11-13 07:55:00
2:55 AM,59.2,53.4,81,29.60,10.0,South,20.7,27.6,N/A,,Clear,180,2011-11-13 08:55:00
3:55 AM,59.4,54.0,82,29.58,10.0,South,17.3,27.6,N/A,,Clear,180,2011-11-13 09:55:00
4:55 AM,59.7,54.3,82,29.56,10.0,South,19.6,31.1,N/A,,Clear,190,2011-11-13 10:55:00
5:55 AM,60.4,54.5,81,29.53,10.0,South,19.6,27.6,N/A,,Clear,180,2011-11-13 11:55:00
6:55 AM,61.3,54.5,78,29.54,10.0,South,18.4,31.1,N/A,,Clear,190,2011-11-13 12:55:00
7:55 AM,62.8,54.9,75,29.57,10.0,SSW,12.7,25.3,N/A,,Clear,200,2011-11-13 13:55:00
8:55 AM,66.2,54.9,67,29.58,10.0,South,18.4,26.5,N/A,,Clear,190,2011-11-13 14:55:00
9:55 AM,69.8,53.4,56,29.58,10.0,SSW,15.0,24.2,N/A,,Clear,200,2011-11-13 15:55:00
10:55 AM,72.5,50.0,45,29.59,10.0,SW,13.8,26.5,N/A,,Partly Cloudy,230,2011-11-13 16:55:00
11:55 AM,74.8,46.9,37,29.56,10.0,SSW,13.8,26.5,N/A,,Clear,210,2011-11-13 17:55:00
12:55 PM,75.6,45.5,34,29.55,10.0,SSW,19.6,27.6,N/A,,Clear,210,2011-11-13 18:55:00
1:55 PM,73.9,46.9,38,29.55,10.0,SW,12.7,24.2,N/A,,Clear,230,2011-11-13 19:55:00
2:55 PM,71.8,46.8,41,29.57,10.0,SSW,10.4,21.9,N/A,,Clear,210,2011-11-13 20:55:00
3:55 PM,70.9,47.1,43,29.59,10.0,SSW,8.1,19.6,N/A,,Clear,210,2011-11-13 21:55:00
4:55 PM,69.6,46.4,43,29.61,10.0,SSW,6.9,-,N/A,,Clear,210,2011-11-13 22:55:00
5:55 PM,66.7,43.2,42,29.62,10.0,South,4.6,-,N/A,,Clear,190,2011-11-13 23:55:00
6:55 PM,64.8,43.3,46,29.66,10.0,South,3.5,-,N/A,,Clear,180,2011-11-14 00:55:00
7:55 PM,63.3,45.7,53,29.65,10.0,South,4.6,-,N/A,,Mostly Cloudy,180,2011-11-14 01:55:00
8:55 PM,63.1,48.2,58,29.64,10.0,South,6.9,-,N/A,,Scattered Clouds,180,2011-11-14 02:55:00
9:55 PM,63.0,49.8,62,29.64,10.0,South,5.8,-,N/A,,Partly Cloudy,170,2011-11-14 03:55:00
10:55 PM,63.5,53.2,69,29.61,10.0,SSE,6.9,-,N/A,,Partly Cloudy,160,2011-11-14 04:55:00
11:55 PM,65.1,57.6,76,29.58,10.0,South,12.7,-,N/A,,Clear,170,2011-11-14 05:55:00